Weather History for KMCW - October, 2011

Change the Weather History Date:

Thursday, October 20, 2011

  Actual Average Record
Temperature  
Mean Temperature 43 °F 47 °F  
Max Temperature 54 °F 58 °F 88 °F (1947)
Min Temperature 31 °F 35 °F 15 °F (1960)
Degree Days  
Heating Degree Days 22 18  
Month to date heating degree days 202 296  
Since 1 July heating degree days 425 509  
Cooling Degree Days 0 0  
Month to date cooling degree days 15 2  
Year to date cooling degree days 789 612  
Moisture  
Dew Point 29 °F    
Average Humidity 62    
Maximum Humidity 92    
Minimum Humidity 32    
Precipitation  
Precipitation 0.00 in 0.08 in 1.30 in (1916)
Month to date precipitation 0.58 1.69  
Year to date precipitation 20.69 31.32  
Snow  
Snow 0.00 in 0.00 in 13.00 in (1916)
Month to date snowfall 0.0 0.1  
Since 1 July snowfall 0.0 0.1  
Since 1 September snowfall 0.0 0.1  
Snow Depth 0.00 in    
Sea Level Pressure  
Sea Level Pressure 29.97 in    
Wind  
Wind Speed 14 mph (NNW)    
Max Wind Speed 28 mph    
Max Gust Speed 35 mph    
Visibility 10 miles    
Events      
T = Trace of Precipitation, MM = Missing Value Source: NWS Daily Summary

Daily Weather History Graph

Daily Weather History Graph

Search for Another Location

Airport or City:

Trip Planner

Search our weather history database for the weather conditions in past years. The results will help you decide how hot, cold, wet, or windy it might be!

Date:

Astronomy

Oct. 20, 2011 Rise Set
Actual Time 7:32 AM CDT 6:22 PM CDT
Civil Twilight 7:03 AM CDT 6:51 PM CDT
Nautical Twilight 6:30 AM CDT 7:24 PM CDT
Astronomical Twilight 5:57 AM CDT 7:57 PM CDT
Moon 12:06 AM CDT (10/20) 2:42 PM CDT (10/20)
Length of Visible Light 11h 47m
Length of Day
10h 50m
Last Quarter, 44% of the Moon is Illuminated
Oct 20
Last Quarter
Oct 26
New
Nov 2
First Quarter
Nov 10
Full
Nov 18
Last Quarter

Hourly Weather History & Observations

Time (CDT) Temp. Windchill Dew Point Humidity Pressure Visibility Wind Dir Wind Speed Gust Speed Precip Events Conditions
12:53 AM 34.0 °F 26.0 °F 28.9 °F 82% 29.99 in 10.0 mi NNW 10.4 mph - N/A   Clear
1:53 AM 34.0 °F 25.5 °F 28.9 °F 82% 29.99 in 10.0 mi NNW 11.5 mph - N/A   Mostly Cloudy
2:53 AM 33.1 °F 23.9 °F 28.9 °F 85% 29.98 in 10.0 mi NNW 12.7 mph - N/A   Mostly Cloudy
3:53 AM 32.0 °F 22.5 °F 28.0 °F 85% 29.97 in 10.0 mi NNW 12.7 mph - N/A   Clear
4:53 AM 30.2 °F 20.8 °F 28.4 °F 93% 29.94 in 10.0 mi NW 11.5 mph - N/A   Clear
5:53 AM 30.9 °F 21.7 °F 28.9 °F 92% 29.96 in 10.0 mi NNW 11.5 mph - N/A   Clear
6:53 AM 30.9 °F 21.2 °F 28.9 °F 92% 29.97 in 10.0 mi NNW 12.7 mph - N/A   Clear
7:53 AM 30.9 °F 20.7 °F 28.9 °F 92% 29.97 in 10.0 mi NW 13.8 mph - N/A   Clear
8:53 AM 34.0 °F 23.8 °F 30.9 °F 89% 29.98 in 10.0 mi NNW 16.1 mph - N/A   Clear
9:18 AM 35.6 °F 26.2 °F 32.0 °F 87% 29.95 in 10.0 mi NNW 15.0 mph - N/A   Partly Cloudy
9:53 AM 39.0 °F 29.3 °F 33.1 °F 79% 29.97 in 10.0 mi NNW 19.6 mph - N/A   Partly Cloudy
10:17 AM 39.2 °F 29.8 °F 33.8 °F 81% 29.96 in 10.0 mi NNW 18.4 mph 24.2 mph N/A   Mostly Cloudy
10:53 AM 42.8 °F 33.5 °F 33.8 °F 70% 29.96 in 10.0 mi North 23.0 mph 26.5 mph N/A   Mostly Cloudy
11:11 AM 44.6 °F 36.4 °F 33.8 °F 66% 29.95 in 10.0 mi North 20.7 mph 31.1 mph N/A   Scattered Clouds
11:53 AM 46.9 °F - 33.1 °F 59% 29.95 in 10.0 mi NNW 20.7 mph 27.6 mph N/A   Clear
12:53 PM 50.0 °F - 30.9 °F 48% 29.94 in 10.0 mi NNW 23.0 mph 31.1 mph N/A   Clear
1:53 PM 53.1 °F - 28.0 °F 38% 29.93 in 10.0 mi North 23.0 mph 32.2 mph N/A   Clear
2:53 PM 53.6 °F - 26.6 °F 35% 29.92 in 10.0 mi North 23.0 mph 31.1 mph N/A   Clear
3:53 PM 54.0 °F - 25.0 °F 33% 29.93 in 10.0 mi NNW 23.0 mph - N/A   Clear
4:53 PM 53.1 °F - 26.1 °F 35% 29.94 in 10.0 mi NNW 18.4 mph 28.8 mph N/A   Clear
5:53 PM 50.0 °F - 26.1 °F 39% 29.96 in 10.0 mi NNW 13.8 mph - N/A   Clear
6:53 PM 43.0 °F 37.7 °F 27.0 °F 53% 29.97 in 10.0 mi NW 9.2 mph - N/A   Clear
7:53 PM 39.9 °F 35.1 °F 28.0 °F 63% 29.99 in 10.0 mi NW 6.9 mph - N/A   Clear
8:53 PM 37.0 °F 31.0 °F 27.0 °F 67% 30.00 in 10.0 mi NW 8.1 mph - N/A   Clear
9:53 PM 32.0 °F 24.2 °F 26.1 °F 79% 30.02 in 10.0 mi WNW 9.2 mph - N/A   Clear
10:53 PM 32.0 °F 24.8 °F 27.0 °F 82% 30.03 in 10.0 mi WNW 8.1 mph - N/A   Clear
11:53 PM 32.0 °F 24.8 °F 27.0 °F 82% 30.03 in 10.0 mi WNW 8.1 mph - N/A   Clear